Location: Willingham
(52.3167°N, 0.0667°E)
Time: 23:43:29
(UTC+00:00)

Sich 1 - Pass Details

Date: 19 May 2025
Orbit: 574 x 603 km, 82.5° (Epoch: 18 June)

Event Time Altitude Azimuth Distance (km) Brightness Sun altitude
Rises 22:30:11 0° 354° (N) 2,841 8.0 -15.3°
Reaches altitude 10° 22:32:31 10° 2° (N) 1,930 6.7 -15.4°
Maximum altitude 22:36:32 40° 72° (ENE) 878 3.8 -15.6°
Enters shadow 22:38:35 24° 127° (SE) 1,235 4.1 -15.7°
